FW8814 Weather Reports


time (UTC)temp
C
wind
direction
speed
KPH
gust
KPH
rain 1hr
cm
rain 24hr
cm
rain mn
cm
humidity
%
barometer
mb
20210723144017 27 206 6.4 12.9 0.00 0.00 0.00 80 1020.1
20210723143016 27 183 6.4 16.1 0.00 0.00 0.00 81 1020.1
20210723142020 26 188 8.0 12.9 0.00 0.00 0.00 83 1020.1
20210723141020 26 187 8.0 16.1 0.00 0.00 0.00 83 1020.0
20210723140018 26 177 8.0 14.5 0.00 0.00 0.00 83 1020.0
20210723135017 26 177 6.4 12.9 0.00 0.00 0.00 84 1020.0
20210723134017 26 178 6.4 11.3 0.00 0.00 0.00 84 1020.0
20210723133018 26 171 4.8 9.7 0.00 0.00 0.00 84 1020.0
20210723132019 26 173 3.2 9.7 0.00 0.00 0.00 84 1019.9
20210723131018 25 163 4.8 12.9 0.00 0.00 0.00 85 1019.9
20210723130018 25 170 4.8 11.3 0.00 0.00 0.00 85 1019.9
20210723125019 25 167 4.8 9.7 0.00 0.00 0.00 85 1019.9
20210723124018 25 182 4.8 11.3 0.00 0.00 0.00 86 1019.9
20210723123018 25 174 4.8 11.3 0.00 0.00 0.00 86 1019.9
20210723122019 24 174 4.8 9.7 0.00 0.00 0.00 87 1019.9
20210723121021 24 188 3.2 9.7 0.00 0.00 0.00 88 1019.8
20210723120020 23 184 3.2 8.0 0.00 0.00 0.00 90 1019.7
20210723115016 23 183 1.6 6.4 0.00 0.00 0.00 90 1019.6
20210723114020 23 182 1.6 3.2 0.00 0.00 0.00 89 1019.6
20210723113019 23 185 1.6 3.2 0.00 0.00 0.00 89 1019.5
20210723112017 23 207 1.6 8.0 0.00 0.00 0.00 89 1019.3
20210723111017 23 210 3.2 8.0 0.00 0.00 0.00 88 1019.4
20210723110021 23 204 3.2 8.0 0.00 0.00 0.00 88 1019.3
20210723105017 23 192 3.2 6.4 0.00 0.00 0.00 89 1019.3
20210723104017 23 197 1.6 4.8 0.00 0.00 0.00 89 1019.4
20210723103017 23 213 1.6 6.4 0.00 0.00 0.00 89 1019.4
20210723102020 24 198 1.6 3.2 0.00 0.00 0.00 88 1019.4
20210723101019 24 206 1.6 6.4 0.00 0.00 0.00 88 1019.3
20210723100018 24 192 1.6 3.2 0.00 0.00 0.00 88 1019.2
20210723095018 24 193 1.6 3.2 0.00 0.00 0.00 87 1019.2
20210723094020 25 186 3.2 8.0 0.00 0.00 0.00 87 1019.2
20210723093019 25 188 3.2 6.4 0.00 0.00 0.00 87 1019.2
20210723092019 25 182 3.2 6.4 0.00 0.00 0.00 87 1019.2
20210723091019 25 206 3.2 8.0 0.00 0.00 0.00 86 1019.2
20210723090019 25 191 3.2 8.0 0.00 0.00 0.00 86 1019.1
20210723085016 25 185 4.8 9.7 0.00 0.00 0.00 86 1019.1
20210723084019 25 189 3.2 8.0 0.00 0.00 0.00 85 1019.1
20210723083020 25 194 4.8 9.7 0.00 0.00 0.00 84 1019.0
20210723082018 25 175 3.2 9.7 0.00 0.00 0.00 84 1019.1
20210723081021 25 188 3.2 6.4 0.00 0.00 0.00 84 1019.1
20210723080020 25 185 3.2 6.4 0.00 0.00 0.00 83 1019.1
20210723075021 25 197 4.8 9.7 0.00 0.00 0.00 83 1019.1
20210723074017 26 195 4.8 9.7 0.00 0.00 0.00 82 1019.1
20210723073017 26 193 6.4 12.9 0.00 0.00 0.00 81 1019.0
20210723072018 26 189 6.4 12.9 0.00 0.00 0.00 81 1018.9
20210723071018 26 190 6.4 9.7 0.00 0.00 0.00 81 1018.9
20210723070018 26 194 6.4 11.3 0.00 0.00 0.00 81 1018.8
20210723065018 26 178 4.8 12.9 0.00 0.00 0.00 81 1018.8
20210723064018 26 181 4.8 9.7 0.00 0.00 0.00 81 1018.7
20210723063019 26 175 4.8 14.5 0.00 0.00 0.00 81 1018.6
20210723062017 26 176 4.8 8.0 0.00 0.00 0.00 80 1018.7
20210723061021 27 172 4.8 9.7 0.00 0.00 0.00 80 1018.7
20210723060021 27 179 4.8 9.7 0.00 0.00 0.00 79 1018.6
20210723055021 27 182 4.8 11.3 0.00 0.00 0.00 78 1018.6
20210723054017 27 183 6.4 16.1 0.00 0.00 0.00 77 1018.5
20210723053019 27 181 8.0 14.5 0.00 0.00 0.00 76 1018.5
20210723052020 27 182 4.8 11.3 0.00 0.00 0.00 76 1018.5
20210723051017 27 172 6.4 12.9 0.00 0.00 0.00 77 1018.5
20210723050017 27 166 4.8 8.0 0.00 0.00 0.00 77 1018.4
20210723045018 27 162 3.2 6.4 0.00 0.00 0.00 76 1018.3
20210723044018 27 161 4.8 8.0 0.00 0.00 0.00 76 1018.2
20210723043019 28 158 4.8 6.4 0.00 0.00 0.00 76 1018.1
20210723042020 28 161 4.8 9.7 0.00 0.00 0.00 75 1018.2
20210723041018 28 167 4.8 9.7 0.00 0.00 0.00 75 1018.2
20210723040018 28 163 3.2 8.0 0.00 0.00 0.00 75 1018.3
20210723035018 28 163 4.8 9.7 0.00 0.00 0.00 75 1018.3
20210723034019 28 156 3.2 6.4 0.00 0.00 0.00 77 1018.2
20210723033019 28 156 4.8 8.0 0.00 0.00 0.00 77 1018.2
20210723032020 28 151 4.8 8.0 0.00 0.00 0.00 76 1018.1
20210723031019 28 153 4.8 6.4 0.00 0.00 0.00 75 1018.1
20210723030019 28 160 6.4 11.3 0.00 0.00 0.00 74 1018.0
20210723025021 28 160 6.4 11.3 0.00 0.00 0.00 74 1018.0
20210723024017 28 155 6.4 9.7 0.00 0.00 0.00 73 1018.0
20210723023017 29 152 6.4 9.7 0.00 0.00 0.00 73 1017.9
20210723022020 29 159 4.8 9.7 0.00 0.00 0.00 72 1017.8
20210723021017 29 162 4.8 8.0 0.00 0.00 0.00 72 1017.7
20210723020017 29 157 4.8 9.7 0.00 0.00 0.00 71 1017.5
20210723015018 29 147 3.2 9.7 0.00 0.00 0.00 72 1017.4
20210723014021 29 147 3.2 6.4 0.00 0.00 0.00 71 1017.4
20210723013018 30 151 4.8 8.0 0.00 0.00 0.00 69 1017.4
20210723012018 30 154 6.4 9.7 0.00 0.00 0.00 67 1017.4
20210723011019 30 157 4.8 8.0 0.00 0.00 0.00 64 1017.3
20210723010019 30 168 6.4 12.9 0.00 0.00 0.00 62 1017.3
20210723005019 30 152 8.0 14.5 0.00 0.00 0.00 66 1017.2
20210723004019 30 150 6.4 9.7 0.00 0.00 0.00 67 1017.0
20210723003019 31 153 6.4 11.3 0.00 0.00 0.00 65 1016.7
20210723002020 31 152 8.0 14.5 0.00 0.00 0.00 64 1016.7
20210723001017 31 148 8.0 14.5 0.00 0.00 0.00 64 1016.7
20210723000019 31 156 8.0 12.9 0.00 0.00 0.00 63 1016.6
20210722235020 31 158 6.4 11.3 0.00 0.00 0.00 62 1016.6
20210722234020 31 170 6.4 9.7 0.00 0.00 0.00 59 1016.6
20210722233017 31 150 4.8 9.7 0.00 0.00 0.00 59 1016.7
20210722232018 31 142 6.4 14.5 0.00 0.00 0.00 59 1016.7
20210722231021 31 169 6.4 11.3 0.00 0.00 0.00 60 1016.6
20210722230017 31 143 6.4 11.3 0.00 0.00 0.00 59 1016.6
20210722225019 31 155 6.4 14.5 0.00 0.00 0.00 59 1016.7
20210722224018 31 149 4.8 8.0 0.00 0.00 0.00 60 1016.7
20210722223019 31 155 6.4 11.3 0.00 0.00 0.00 60 1016.8
20210722222018 31 140 8.0 11.3 0.00 0.00 0.00 59 1016.9
20210722221019 31 140 8.0 14.5 0.00 0.00 0.00 60 1016.9
20210722220018 31 132 8.0 14.5 0.00 0.00 0.00 61 1017.0
20210722215019 31 165 4.8 11.3 0.00 0.00 0.00 62 1017.2
20210722214020 30 148 6.4 11.3 0.00 0.00 0.00 61 1017.2
20210722213019 30 134 6.4 14.5 0.00 0.00 0.00 62 1017.4
20210722212021 30 150 8.0 11.3 0.00 0.00 0.00 63 1017.5
20210722211021 31 134 6.4 9.7 0.00 0.00 0.00 62 1017.5
20210722210016 31 135 8.0 17.7 0.00 0.00 0.00 61 1017.6
20210722205020 31 127 6.4 12.9 0.00 0.00 0.00 62 1017.7
20210722204021 31 139 6.4 12.9 0.00 0.00 0.00 61 1017.8
20210722203017 30 136 8.0 14.5 0.00 0.00 0.00 63 1017.9
20210722202018 30 141 8.0 12.9 0.00 0.00 0.00 62 1018.0
20210722201018 30 152 6.4 11.3 0.00 0.00 0.00 64 1018.1
20210722200022 30 137 6.4 12.9 0.00 0.00 0.00 63 1018.2
20210722195019 30 117 6.4 12.9 0.00 0.00 0.00 63 1018.3
20210722194018 30 113 8.0 14.5 0.00 0.00 0.00 64 1018.4
20210722193020 30 158 8.0 12.9 0.00 0.00 0.00 64 1018.5
20210722192019 30 143 8.0 14.5 0.00 0.00 0.00 63 1018.6
20210722191019 30 147 6.4 12.9 0.00 0.00 0.00 63 1018.8
20210722190018 30 152 8.0 14.5 0.00 0.00 0.00 62 1018.8
20210722185019 30 139 8.0 14.5 0.00 0.00 0.00 62 1018.9
20210722184019 30 151 8.0 12.9 0.00 0.00 0.00 64 1019.0
20210722183016 30 157 8.0 12.9 0.00 0.00 0.00 63 1019.1
20210722182019 30 135 6.4 11.3 0.00 0.00 0.00 64 1019.2
20210722181021 30 156 8.0 12.9 0.00 0.00 0.00 66 1019.2
20210722180018 29 157 8.0 12.9 0.00 0.00 0.00 66 1019.4
20210722175018 29 158 8.0 12.9 0.00 0.00 0.00 67 1019.5
20210722174017 29 162 6.4 12.9 0.00 0.00 0.00 69 1019.6
20210722173018 29 153 8.0 14.5 0.00 0.00 0.00 69 1019.7
20210722172019 29 160 8.0 16.1 0.00 0.00 0.00 69 1019.8
20210722171020 28 143 8.0 12.9 0.00 0.00 0.00 70 1019.9
20210722170018 28 154 6.4 11.3 0.00 0.00 0.00 71 1019.9
20210722165018 29 152 6.4 12.9 0.00 0.00 0.00 71 1019.9
20210722164018 28 143 4.8 11.3 0.00 0.00 0.00 72 1020.0
20210722163018 28 176 6.4 9.7 0.00 0.00 0.00 72 1020.1
20210722162018 28 150 4.8 11.3 0.00 0.00 0.00 72 1020.1
20210722161019 28 150 6.4 11.3 0.00 0.00 0.00 72 1020.1
20210722160019 28 127 6.4 12.9 0.00 0.00 0.00 73 1020.1
20210722155019 27 143 8.0 11.3 0.00 0.00 0.00 73 1020.0
20210722154019 27 115 6.4 12.9 0.00 0.00 0.00 73 1020.1
20210722153020 27 124 6.4 11.3 0.00 0.00 0.00 75 1020.1
20210722152017 27 118 8.0 14.5 0.00 0.00 0.00 79 1020.1
20210722151018 27 142 4.8 8.0 0.00 0.00 0.00 78 1020.1
20210722150020 27 138 4.8 8.0 0.00 0.00 0.00 79 1020.1
20210722145020 27 174 3.2 4.8 0.00 0.00 0.00 80 1020.1